Location: Celina Division
(33.3022°N, 96.7580°W)
Time: 21:58:46
(UTC+00:00)

O/OREOS (USA 219) - Visible Passes

Search period start: 31 March 2023 00:00
Search period end: 10 April 2023 00:00
Orbit: 621 x 646 km, 72.0° (Epoch: 22 May)

Date Brightness Start Highest point End Pass type
(mag) Time Alt. Az. Time Alt. Az. Time Alt. Az.
31 Mar ? 09:57:40 16° SE 09:59:49 23° ESE 10:03:24 10° NE visible
31 Mar ? 11:35:10 10° WSW 11:39:03 27° WNW 11:42:56 10° N visible
01 Apr ? 10:20:10 37° SSE 10:21:41 56° ESE 10:26:10 10° NNE visible
02 Apr ? 09:05:03 10° E 09:05:03 10° E 09:05:17 10° E visible
02 Apr ? 10:42:32 43° WSW 10:43:42 57° WNW 10:48:13 10° N visible
03 Apr ? 09:27:18 24° E 09:27:18 24° E 09:30:21 10° NE visible
03 Apr ? 11:04:47 22° W 11:05:53 24° WNW 11:09:36 10° N visible
04 Apr ? 09:49:27 50° NE 09:49:27 50° NE 09:53:00 10° NNE visible
04 Apr ? 11:27:17 10° WNW 11:28:17 11° WNW 11:29:18 10° NW visible
05 Apr ? 10:11:31 42° NNW 10:11:31 42° NNW 10:14:58 10° N visible
06 Apr ? 08:56:02 17° NE 08:56:02 17° NE 08:57:18 10° NE visible
06 Apr ? 10:33:30 21° NW 10:33:30 21° NW 10:36:15 10° NNW visible
07 Apr ? 09:17:57 24° NNE 09:17:57 24° NNE 09:19:50 10° NNE visible
08 Apr ? 09:39:49 23° N 09:39:49 23° N 09:41:42 10° N visible
09 Apr ? 08:24:11 10° NE 08:24:11 10° NE 08:24:14 10° NE visible
09 Apr ? 10:01:38 15° NNW 10:01:38 15° NNW 10:02:52 10° NNW visible
